Погода в Красилове

Украина / Хмельницкая область     49°39′13″N   26°58′14″E
темп.,
°C
ветер,
м/с
пор.,
м/с
влажн.,
%
обл.,
%
осадки,
мм/ч
давл.,
гПа
погр.,
м
13 августа, сб
сб1300:00+17св4795100 0.1 1017174
03:00+17св3994100 0.3 1017229
06:00+17всв3139373 0.0 1015406
09:00+20всв598567 0.4 1015496
12:00+22всв687261 0.0 1014789
15:00+26всв686099 1.0 10121525
18:00+22всв6136960 0.4 1012405
21:00+18св4119171 2.4 1012238
14 августа, вс
вс1400:00+17ссв41093100 2.8 1012256
03:00+16ссв389719 2.8 1011176
06:00+16св399876 0.3 1011191
09:00+20всв488486 1.0 1010298
12:00+26всв5652100 0.0 1010796
15:00+28в5743100 0.0 10091422
18:00+27всв584799 0.0 1008623
21:00+21в336595 0.1 100947
15 августа, пн
пн1500:00+19св367081 0.2 1009113
03:00+18в347673 0.2 100860
06:00+20всв365682 0.0 1008113
09:00+23всв5145374 0.0 1008665
12:00+26в6747100 0.0 10081084
15:00+28в4840100 0.0 10071548
18:00+27всв3446100 0.0 100664
21:00+24всв2249100 0.0 100624
16 августа, вт
вт1600:00+20вюв3773100 0.3 1007104
03:00+19всв3577100 0.3 100794
06:00+17в2283100 0.0 100729
09:00+22юв2369100 0.0 1007230
12:00+27вюв3349100 0.0 10071117
15:00+29юв2340100 0.0 10072205
18:00+29ссз0241100 0.0 10071755
21:00+19юв4890100 1.1 1010224
17 августа, ср
ср1700:00+19ююз119079 0.0 101011
03:00+17всв339187 0.7 101150
06:00+16юв11915 0.0 101111
09:00+21св22745 0.0 1011253
12:00+26ссв22533 0.0 10111060
15:00+29с33436 0.0 10101894
18:00+28с44410 0.0 10101772
21:00+21ссв35615 0.0 101163